Blattenbach Aussen Messungen

Zurück zum Überblick

Zeitpunkt Temperatur Temperatur Kabelsensor Luftfeuchte
22.01.2019 15:31:57 1,7 C 2,6 C 67,0%
22.01.2019 15:24:58 1,8 C 2,5 C 67,0%
22.01.2019 15:18:00 1,8 C 2,5 C 67,0%
22.01.2019 15:10:57 1,7 C 2,5 C 67,0%
22.01.2019 15:03:57 1,9 C 2,5 C 67,0%
22.01.2019 14:56:58 1,8 C 2,5 C 67,0%
22.01.2019 14:49:58 1,8 C 2,5 C 67,0%
22.01.2019 14:43:00 1,9 C 2,5 C 67,0%
22.01.2019 14:35:56 1,8 C 2,5 C 67,0%
22.01.2019 14:28:59 1,7 C 2,5 C 67,0%
22.01.2019 14:21:57 1,7 C 2,5 C 67,0%
22.01.2019 14:14:57 1,7 C 2,5 C 67,0%
22.01.2019 14:07:56 1,7 C 2,5 C 67,0%
22.01.2019 14:00:56 1,7 C 2,5 C 67,0%
22.01.2019 13:53:57 1,6 C 2,5 C 67,0%
22.01.2019 13:46:59 1,6 C 2,5 C 67,0%
22.01.2019 13:39:56 1,5 C 2,4 C 67,0%
22.01.2019 13:32:56 1,5 C 2,4 C 68,0%
22.01.2019 13:25:59 1,2 C 2,4 C 68,0%
22.01.2019 13:18:56 1,2 C 2,4 C 68,0%
22.01.2019 13:11:59 1,2 C 2,4 C 68,0%
22.01.2019 13:04:59 1,1 C 2,4 C 68,0%
22.01.2019 12:57:56 1,1 C 2,4 C 68,0%
22.01.2019 12:50:56 1,0 C 2,4 C 68,0%
22.01.2019 12:43:55 1,3 C 2,4 C 68,0%
22.01.2019 12:36:57 1,5 C 2,4 C 68,0%
22.01.2019 12:29:59 1,5 C 2,4 C 68,0%
22.01.2019 12:22:56 1,7 C 2,3 C 68,0%
22.01.2019 12:15:56 1,9 C 2,3 C 68,0%
22.01.2019 12:08:58 1,7 C 2,3 C 69,0%
22.01.2019 12:01:55 1,5 C 2,3 C 69,0%
22.01.2019 11:54:57 1,3 C 2,3 C 69,0%
22.01.2019 11:47:59 1,3 C 2,3 C 69,0%
22.01.2019 11:40:57 1,6 C 2,3 C 70,0%
22.01.2019 11:33:58 1,3 C 2,3 C 71,0%
22.01.2019 11:26:55 1,0 C 2,3 C 71,0%
22.01.2019 11:19:55 0,7 C 2,3 C 71,0%
22.01.2019 11:12:57 0,6 C 2,3 C 72,0%
22.01.2019 11:05:56 0,4 C 2,3 C 72,0%
22.01.2019 10:58:58 0,3 C 2,3 C 72,0%
22.01.2019 10:51:56 0,0 C 2,3 C 73,0%
22.01.2019 10:44:56 0,0 C 2,2 C 73,0%
22.01.2019 10:37:57 0,1 C 2,2 C 73,0%
22.01.2019 10:30:56 0,0 C 2,2 C 73,0%
22.01.2019 10:23:56 -0,1 C 2,2 C 74,0%
22.01.2019 10:16:56 -0,4 C 2,2 C 74,0%
22.01.2019 10:09:55 -0,3 C 2,2 C 74,0%
22.01.2019 10:02:58 -0,5 C 2,2 C 75,0%
22.01.2019 09:55:57 -0,7 C 2,2 C 75,0%
22.01.2019 09:48:54 -0,9 C 2,1 C 76,0%